This demonstration page uses our WeatherBlox Daily Observations layout. Learn more.

Left ArrowRight Arrow

39.51506, -84.39828

Hourly Observations for June 15, 2020

Temp ( °F °C ) Dew Point ( °F °C ) Humidity (%) Winds ( mph kmh ) Pressure ( in mb ) Visibility ( mi km ) Precip ( " mm )
12:15 am 00:15 Clear 59 15.2 45 7.3 59 59 NNE 8 13 30.28 1025 10 16.0934 0 0
12:35 am 00:35 Clear N/A N/A N/A NNE 9 15 N/A 10 16.0934 0 0
12:55 am 00:55 Clear 57 14 45 7 63 63 NNE 6 9 30.28 1025 10 16.0934 0 0
1:15 am 01:15 Clear 56 13.4 45 7 65 65 N 6 9 30.27 1025 10 16.0934 0 0
1:35 am 01:35 Clear 56 13.1 45 7 67 67 N 6 9 30.28 1025 10 16.0934 0 0
1:55 am 01:55 Clear 55 12.6 44 6.4 66 66 N 7 11 30.28 1025 10 16.0934 0 0
2:15 am 02:15 Clear 55 12.6 43 5.9 64 64 N 7 11 30.28 1025 10 16.0934 0 0
2:35 am 02:35 Clear 54 12.2 42 5.6 64 64 N 5 7 30.28 1026 10 16.0934 0 0
2:55 am 02:55 Clear 54 12.3 42 5.4 63 63 N 5 7 30.28 1026 10 16.0934 0 0
3:15 am 03:15 Clear 53 11.9 42 5.6 66 66 N 5 7 30.28 1026 10 16.0934 0 0
3:35 am 03:35 Clear 53 11.7 42 5.6 66 66 N 8 13 30.28 1026 10 16.0934 0 0
3:55 am 03:55 Clear 53 11.8 42 5.8 67 67 N 6 9 30.27 1025 10 16.0934 0 0
4:15 am 04:15 Clear 53 11.7 43 6.1 69 69 NNE 7 11 30.28 1026 10 16.0934 0 0
4:35 am 04:35 Clear 52 11.3 43 6.3 72 72 N 3 6 30.28 1025 10 16.0934 0 0
4:55 am 04:55 Clear 52 11.2 44 6.5 73 73 NNE 5 7 30.29 1026 10 16.0934 0 0
5:15 am 05:15 Clear 52 11.2 44 6.8 75 75 Calm 30.3 1026 10 16.0934 0 0
5:35 am 05:35 Clear 52 11.2 45 7 76 76 N 3 6 30.3 1026 10 16.0934 0 0
5:55 am 05:55 Clear 52 10.9 45 7.2 78 78 NNE 3 6 30.3 1026 10 16.0934 0 0
6:15 am 06:15 Sunny 51 10.6 46 7.5 81 81 NNE 5 7 30.31 1026 10 16.0934 0 0
6:35 am 06:35 Sunny 52 11 46 7.9 81 81 N 3 6 30.32 1027 10 16.0934 0 0
6:55 am 06:55 Partly Cloudy 52 11.3 47 8.2 81 81 N 7 11 30.32 1027 10 16.0934 0 0
7:15 am 07:15 Partly Cloudy 53 11.8 48 8.8 82 82 N 3 6 30.31 1027 10 16.0934 0 0
7:35 am 07:35 Cloudy 56 13.1 49 9.3 78 78 NNE 8 13 30.32 1027 10 16.0934 0 0
7:55 am 07:55 Cloudy 59 15 50 10 72 72 NE 10 17 30.31 1026 10 16.0934 0 0
8:15 am 08:15 Sunny 59 15 50 10 72 72 NNE 12 19 30.32 1027 10 16.0934 0 0
8:35 am 08:35 Sunny 61 16 52 11 72 72 NNE 10 17 30.31 1027 10 16.0934 0 0
8:55 am 08:55 Sunny N/A N/A N/A NE 7 11 N/A 10 16.0934 0 0
1:15 pm 13:15 Partly Cloudy N/A N/A N/A NE 9 15 N/A 10 16.09 0 0
1:35 pm 13:35 Mostly Cloudy N/A N/A N/A N 3 5 N/A 10 16.09 0 0
1:55 pm 13:55 Mostly Cloudy N/A N/A N/A NE 6 9 N/A 10 16.09 0 0
2:15 pm 14:15 Partly Cloudy N/A N/A N/A ENE 9 15 N/A 10 16.09 0 0
2:35 pm 14:35 Mostly Cloudy N/A N/A N/A ENE 11 18 N/A 10 16.09 0 0
3:35 pm 15:35 Mostly Cloudy N/A N/A N/A ENE 7 11 N/A 10 16.09 0 0
4:15 pm 16:15 Mostly Cloudy N/A N/A N/A ESE 7 11 N/A 10 16.09 0 0
4:35 pm 16:35 Mostly Cloudy N/A N/A N/A SE 5 8 N/A 10 16.09 0 0
4:55 pm 16:55 Cloudy N/A N/A N/A ESE 5 8 N/A 10 16.09 0 0
5:35 pm 17:35 Partly Cloudy N/A N/A N/A NE 5 8 N/A 10 16.09 0 0
5:55 pm 17:55 Sunny N/A N/A N/A E 5 8 N/A 10 16.09 0 0
6:15 pm 18:15 Partly Cloudy N/A N/A N/A ESE 7 11 N/A 10 16.09 0 0
6:35 pm 18:35 Partly Cloudy N/A N/A N/A E 9 15 N/A 10 16.0934 0 0
6:55 pm 18:55 Mostly Cloudy N/A N/A N/A E 9 15 N/A 10 16.0934 0 0
7:15 pm 19:15 Mostly Cloudy N/A N/A N/A E 9 15 N/A 10 16.0934 0 0
7:35 pm 19:35 Cloudy N/A N/A N/A E 8 13 N/A 10 16.0934 0 0
7:55 pm 19:55 Cloudy N/A N/A N/A E 9 15 N/A 10 16.0934 0 0
8:15 pm 20:15 Partly Cloudy N/A N/A N/A ENE 8 13 N/A 10 16.0934 0 0
8:35 pm 20:35 Sunny N/A N/A N/A E 7 11 N/A 10 16.0934 0 0
8:55 pm 20:55 Sunny N/A N/A N/A E 5 7 N/A 10 16.0934 0 0
9:15 pm 21:15 Clear N/A N/A N/A ENE 3 6 N/A 10 16.0934 0 0
9:35 pm 21:35 Clear N/A N/A N/A Calm N/A 10 16.0934 0 0
9:55 pm 21:55 Clear N/A N/A N/A Calm N/A 10 16.0934 0 0
10:15 pm 22:15 Clear N/A N/A N/A Calm N/A 10 16.0934 0 0
10:35 pm 22:35 Clear N/A N/A N/A Calm N/A 10 16.0934 0 0
10:55 pm 22:55 Hazy N/A N/A N/A Calm N/A 5 8.0467 0 0
11:15 pm 23:15 Clear N/A N/A N/A Calm N/A 10 16.0934 0 0
11:35 pm 23:35 Clear N/A N/A N/A Calm N/A 10 16.0934 0 0
11:55 pm 23:55 Clear N/A N/A N/A NNE 3 6 N/A 10 16.0934 0 0

Powered by AerisWeather